Location: ????????
(41.2031°N, 22.5756°E)
Time: 04:45:55
(UTC+00:00)

CZ-4C R/B - Pass Details

Date: 01 December 2020
Orbit: 407 x 489 km, 97.7° (Epoch: 20 January)

Event Time Altitude Azimuth Distance (km) Brightness Sun altitude
Rises 15:33:56 0° 9° (N) 2,578 6.4 -6.3°
Reaches altitude 10° 15:36:02 10° 7° (N) 1,690 5.5 -6.7°
Maximum altitude 15:39:39 69° 284° (WNW) 527 3.4 -7.3°
Drops below altitude 10° 15:43:13 10° 201° (SSW) 1,659 6.4 -7.9°
Sets 15:45:15 0° 199° (SSW) 2,525 7.4 -8.3°
